Погода в Кутереме

Россия / Республика Башкортостан     55°59′33″N   54°31′19″E
темп.,
°C
ветер,
м/с
пор.,
м/с
влажн.,
%
обл.,
%
осадки,
мм/ч
давл.,
гПа
погр.,
м
22 апреля, чт
чт2223:00+8ююв5144795 0.0 1028412
02:00+8ю71448100 0.0 1027746
05:00+6ю61372100 0.3 1028996
08:00+4ю71494100 1.0 1028906
11:00+4ю61196100 2.4 1029914
14:00+6ю61179100 0.1 1029797
17:00+6ю51076100 0.3 1029768
20:00+6ю61086100 0.2 1029696
23 апреля, пт
пт2323:00+3ю61097100 0.3 1029546
02:00+3ю4897100 0.1 1029450
05:00+3ю4797100 0.1 1029451
08:00+3ю3698100 0.1 1029347
11:00+4ююв3596100 0.1 1029408
14:00+6ююв3481100 0.0 1029636
17:00+9юв4470100 0.1 1028854
20:00+7в358227 0.0 1027133
24 апреля, сб
сб2423:00+4всв479494 0.0 1026133
02:00+4всв4992100 0.0 1024167
05:00+4вюв2495100 0.0 102293
08:00+6вюв4998100 0.8 1020364
11:00+6вюв4895100 1.9 1019524
14:00+9вюв5777100 0.2 10171015
17:00+9юв4879100 0.5 1015748
20:00+7вюв4889100 0.8 1014425
25 апреля, вс
вс2523:00+6вюв3896100 3.8 1012552
02:00+6ююв3697100 1.8 1011349
05:00+6ю4795100 1.9 1011316
08:00+6ююв599232 0.0 1010412
11:00+8ююв71285100 1.0 10081231
14:00+6зюз7118992 4.2 1009874
17:00+10зюз8125789 4.8 10112042
20:00+8юз48615 0.3 1013180
26 апреля, пн
пн2623:00+4юз388393 0.6 1014148
02:00+4ююз3884100 0.1 1015151
05:00+4юз398485 0.2 1015288
08:00+5ююз498487 0.1 1015365
11:00+8юз686182 0.6 10151143
14:00+10юз684367 0.0 10152196
17:00+11юз684062 0.0 10142209
20:00+8юз3556100 0.0 101386